Regional Weather Roundup
Issued by NWS Midland/Odessa, TX

Skip options and go directly to product.
Home | Oldest Version | Next Version | Current Version | All | Text Only | Save Text | Print | Product List | Glossary On

Skip product version selection by date and time.   
163
ASUS44 KMAF 220810
RWRMAF
MIDLAND AREA WEATHER ROUNDUP
NATIONAL WEATHER SERVICE MIDLAND TX
300 AM CDT FRI MAY 22 2015

...IN SOUTHWEST TEXAS AND SOUTHEAST NEW MEXICO...

CITY           SKY/WX    TMP DP  RH WIND       PRES   REMARKS
ALPINE         MOCLDY    58  56  92 CALM      30.15F
ANDREWS        DRIZZLE   54  54 100 CALM      30.12F
ARTESIA        CLOUDY    54  54 100 SE5       30.13F
BIG SPRING     CLOUDY    59  55  87 E5        30.13F
CARLSBAD       CLOUDY    54  52  93 CALM      30.11F
DRYDEN           N/A     66  64  93 NW6       30.03F
FORT STOCKTON  CLOUDY    58  58 100 NE6       30.07F FOG
GUAD PASS      LGT RAIN  47  47 100 NE24      30.14S VSB 1/4 WCI  39
HOBBS          CLOUDY    52  52 100 E5        30.12F
MARFA          CLOUDY   N/A N/A N/A CALM      30.13F
MIDLAND AIRPK  RAIN      58  58 100 E5        30.10F
MIDLAND INTL   LGT RAIN  58  56  93 E5        30.10F FOG
ODESSA         LGT RAIN  57  55  93 E6        30.10F FOG
PECOS          CLOUDY    56  55  95 N6        30.07F FOG
PRESIDIO       FAIR      66  57  73 MISG      30.02F
SEMINOLE       CLOUDY    54  53  99 E6        30.12F
SNYDER         CLOUDY    55  54  98 E6        30.12S FOG
WINK           LGT RAIN  56  53  90 NE10      30.07F FOG
$$
...OTHER STATIONS IN TEXAS...

CITY           SKY/WX    TMP DP  RH WIND       PRES   REMARKS
ABILENE        CLOUDY    58  56  93 SE9       30.12F
AMARILLO       RAIN      50  49  96 NE5       30.17F
AUSTIN         DRIZZLE   62  62 100 NE5       30.10F FOG
BROWNSVILLE    CLOUDY    76  75  97 NE3       29.99F FOG
CORPUS CHRISTI MOCLDY    75  73  93 N3        30.02F
DALLAS FTW     CLOUDY    61  58  90 E9        30.12S
DEL RIO        CLOUDY    67  64  90 E12       30.01F
EL PASO        CLEAR     56  51  84 SE6       30.03F
HOUSTON INT    CLOUDY    70  66  87 NE10      30.09R
LUBBOCK        TSTM      51  51 100 CALM      30.14F FOG
SAN ANGELO     CLOUDY    61  59  93 E7        30.09F
SAN ANTONIO    DRIZZLE   65  62  90 NE9       30.10F
WACO           CLOUDY    62  60  93 E7        30.11S
WICHITA FALLS  NOT AVBL
$$
...OTHER LOCATIONS IN NEW MEXICO...

CITY           SKY/WX    TMP DP  RH WIND       PRES   REMARKS
ALAMAGORDO     CLEAR     54  50  87 N8        30.05S
ALBUQUERQUE    PTCLDY    50  42  74 E12       30.10F
CANNON AFB     CLOUDY    48  48  99 SE9       30.11F
CLOVIS         CLOUDY    48  46  93 SE5       30.13F
HOLLOMAN AFB   CLEAR     52  51  98 N6        30.04R
ROSWELL        CLOUDY    53  50  89 CALM      30.12F
RUIDOSO        MIX PCPN  41  41 100 SE9       30.17F VSB<1/4 WCI  35
SANTA FE       CLOUDY    44  40  85 SE9       30.15S WCI  39
TRUTH OR CONSE CLEAR     50  47  89 N5        30.03F
TUCUMCARI      NOT AVBL
$$

USA.gov is the U.S. government's official web portal to all federal, state and local government web resources and services.